sat.trackr.live / text

‹ back to catalog

STARLINK-3227

NORAD 49765 · 2021-115AT

PAYLOAD ACTIVE UNKNOWN

§ Identity

Operator
Country
US
Launch date
2021-12-02
Launch site
AFETR
Launch vehicle
Mass (kg)
RCS (m²)

Purposes: comms

External: N2YO · Heavens-Above · Gunter

§ Orbital elements

Epoch: 2026-05-24T10:03:08.390304Z

Period
95.44 min
Inclination
53.2134°
Eccentricity
0.0001170
Mean motion
15.08836171 rev/d
Perigee alt
538.9 km
Apogee alt
540.6 km
Semi-major
6,917.9 km
B*
4.2072e-5
RAAN
159.1715°
Arg perigee
72.0269°
Mean anomaly
288.0851°
Rev number
24,711

§ Raw data

STARLINK-32271 49765U 21115AT  26144.41884711  .00000382  00000+0  42072-4 0  99932 49765  53.2134 159.1715 0001170  72.0269 288.0851 15.08836171247112

JSON: /api/v1/satellites/49765 · /tle

For live sub-satellite position, see the globe view (requires WebGL).

§ Visibility from observer

Set your observer location to see the next 7 days of passes ≥ 10°. The values pass through the URL so the page stays shareable.

No JS? Fill the form by hand. The geolocation button needs JavaScript.